| time (UTC) | temp F | wind direction | speed knots | gust knots | rain 1hr in | rain 24hr in | rain mn in | humidity % | barometer mb |
| 20260507212203 | 66 | 296 | 4.3 | 11.3 | 0.00 | 0.16 | 0.12 | 27 | 1005.2 |
| 20260507211704 | 66 | 331 | 4.3 | 11.3 | 0.00 | 0.16 | 0.12 | 27 | 1005.2 |
| 20260507211203 | 66 | 262 | 4.3 | 11.3 | 0.00 | 0.16 | 0.12 | 28 | 1005.2 |
| 20260507210703 | 67 | 327 | 3.5 | 9.6 | 0.00 | 0.16 | 0.12 | 27 | 1005.1 |
| 20260507210204 | 67 | 342 | 3.5 | 9.6 | 0.00 | 0.16 | 0.12 | 28 | 1005.1 |
| 20260507205703 | 67 | 335 | 2.6 | 9.6 | 0.00 | 0.16 | 0.12 | 27 | 1005.1 |
| 20260507204204 | 68 | 231 | 2.6 | 9.6 | 0.00 | 0.17 | 0.12 | 27 | 1005.0 |
| 20260507203703 | 68 | 290 | 2.6 | 9.6 | 0.00 | 0.17 | 0.12 | 28 | 1005.1 |
| 20260507202704 | 68 | 295 | 3.5 | 9.6 | 0.00 | 0.17 | 0.12 | 27 | 1005.1 |
| 20260507202203 | 68 | 304 | 3.5 | 9.6 | 0.00 | 0.17 | 0.12 | 27 | 1005.2 |
| 20260507201703 | 69 | 267 | 3.5 | 9.6 | 0.00 | 0.17 | 0.12 | 26 | 1005.1 |
| 20260507200203 | 69 | 36 | 2.6 | 10.4 | 0.00 | 0.17 | 0.12 | 26 | 1005.1 |
| 20260507195704 | 70 | 195 | 2.6 | 9.6 | 0.00 | 0.17 | 0.12 | 25 | 1005.3 |
| 20260507195200 | 69 | 254 | 3.5 | 11.3 | 0.00 | 0.18 | 0.12 | 26 | 1005.3 |
| 20260507194700 | 69 | 317 | 3.5 | 11.3 | 0.00 | 0.18 | 0.12 | 25 | 1005.4 |
| 20260507194201 | 69 | 355 | 3.5 | 9.6 | 0.00 | 0.18 | 0.12 | 25 | 1005.4 |
| 20260507193700 | 69 | 337 | 4.3 | 9.6 | 0.00 | 0.18 | 0.12 | 24 | 1005.5 |
| 20260507193159 | 69 | 335 | 4.3 | 13.0 | 0.00 | 0.18 | 0.12 | 24 | 1005.5 |
| 20260507192159 | 69 | 5 | 5.2 | 13.9 | 0.00 | 0.18 | 0.12 | 23 | 1005.6 |
| 20260507191700 | 69 | 330 | 3.5 | 13.9 | 0.00 | 0.19 | 0.12 | 24 | 1005.6 |
| 20260507191201 | 69 | 242 | 3.5 | 12.2 | 0.00 | 0.19 | 0.12 | 23 | 1005.5 |
| 20260507190700 | 69 | 273 | 4.3 | 11.3 | 0.00 | 0.19 | 0.12 | 23 | 1005.7 |
| 20260507190159 | 70 | 254 | 3.5 | 11.3 | 0.00 | 0.19 | 0.12 | 23 | 1005.7 |
| 20260507184657 | 69 | 331 | 3.5 | 10.4 | 0.00 | 0.19 | 0.12 | 24 | 1005.9 |
| 20260507184156 | 69 | 290 | 3.5 | 8.7 | 0.00 | 0.19 | 0.12 | 23 | 1005.9 |
| 20260507183659 | 69 | 355 | 5.2 | 12.2 | 0.00 | 0.19 | 0.12 | 24 | 1006.0 |
| 20260507183158 | 69 | 317 | 5.2 | 13.9 | 0.00 | 0.19 | 0.12 | 25 | 1005.8 |
| 20260507182657 | 69 | 211 | 4.3 | 13.9 | 0.00 | 0.19 | 0.12 | 25 | 1005.9 |
| 20260507182157 | 70 | 326 | 4.3 | 13.0 | 0.00 | 0.19 | 0.12 | 25 | 1005.9 |
| 20260507181158 | 70 | 286 | 3.5 | 12.2 | 0.00 | 0.19 | 0.12 | 26 | 1005.9 |
| 20260507180657 | 71 | 252 | 2.6 | 10.4 | 0.00 | 0.19 | 0.12 | 27 | 1006.2 |
| 20260507180158 | 70 | 293 | 3.5 | 12.2 | 0.00 | 0.19 | 0.12 | 28 | 1006.2 |
| 20260507175656 | 69 | 235 | 4.3 | 12.2 | 0.00 | 0.19 | 0.12 | 27 | 1006.3 |
| 20260507175157 | 70 | 325 | 4.3 | 12.2 | 0.00 | 0.19 | 0.12 | 27 | 1006.3 |
| 20260507174656 | 70 | 240 | 4.3 | 12.2 | 0.00 | 0.19 | 0.12 | 28 | 1006.3 |
| 20260507174157 | 69 | 308 | 4.3 | 11.3 | 0.00 | 0.19 | 0.12 | 29 | 1006.2 |
| 20260507173658 | 69 | 227 | 3.5 | 8.7 | 0.00 | 0.19 | 0.12 | 28 | 1006.2 |
| 20260507172657 | 69 | 330 | 4.3 | 9.6 | 0.00 | 0.19 | 0.12 | 30 | 1006.3 |
| 20260507172156 | 68 | 236 | 4.3 | 9.6 | 0.00 | 0.19 | 0.12 | 30 | 1006.2 |
| 20260507171657 | 67 | 336 | 4.3 | 8.7 | 0.00 | 0.19 | 0.12 | 31 | 1006.3 |
| 20260507171155 | 68 | 293 | 3.5 | 8.7 | 0.00 | 0.19 | 0.12 | 33 | 1006.3 |
| 20260507170655 | 68 | 229 | 4.3 | 9.6 | 0.00 | 0.19 | 0.12 | 33 | 1006.3 |
| 20260507165655 | 70 | 329 | 3.5 | 10.4 | 0.00 | 0.19 | 0.12 | 33 | 1006.5 |
| 20260507165155 | 69 | 309 | 4.3 | 10.4 | 0.00 | 0.19 | 0.12 | 33 | 1006.6 |
| 20260507164655 | 69 | 273 | 4.3 | 12.2 | 0.00 | 0.19 | 0.12 | 34 | 1006.6 |
| 20260507164152 | 69 | 339 | 3.5 | 12.2 | 0.00 | 0.19 | 0.12 | 35 | 1006.6 |
| 20260507163654 | 68 | 314 | 3.5 | 10.4 | 0.00 | 0.19 | 0.12 | 38 | 1006.7 |
| 20260507163154 | 67 | 18 | 3.5 | 10.4 | 0.00 | 0.19 | 0.12 | 39 | 1006.7 |
| 20260507162150 | 64 | 304 | 2.6 | 7.8 | 0.00 | 0.19 | 0.12 | 45 | 1006.8 |
| 20260507161149 | 64 | 267 | 4.3 | 11.3 | 0.00 | 0.19 | 0.12 | 44 | 1007.0 |
| 20260507160649 | 65 | 242 | 3.5 | 11.3 | 0.00 | 0.19 | 0.12 | 42 | 1007.1 |
| 20260507160146 | 67 | 273 | 2.6 | 9.6 | 0.00 | 0.19 | 0.12 | 42 | 1007.2 |
| 20260507155644 | 68 | 356 | 2.6 | 9.6 | 0.00 | 0.19 | 0.12 | 41 | 1007.1 |
| 20260507155144 | 67 | 238 | 2.6 | 9.6 | 0.00 | 0.19 | 0.12 | 44 | 1007.1 |
| 20260507154644 | 65 | 248 | 3.5 | 9.6 | 0.00 | 0.19 | 0.12 | 45 | 1007.2 |
| 20260507154145 | 65 | 327 | 2.6 | 9.6 | 0.00 | 0.19 | 0.12 | 45 | 1007.3 |
| 20260507153645 | 65 | 304 | 2.6 | 9.6 | 0.00 | 0.19 | 0.12 | 46 | 1007.4 |
| 20260507153145 | 64 | 337 | 2.6 | 7.0 | 0.00 | 0.19 | 0.12 | 47 | 1007.4 |
| 20260507152644 | 64 | 287 | 2.6 | 8.7 | 0.00 | 0.19 | 0.12 | 47 | 1007.4 |
| 20260507151644 | 65 | 5 | 3.5 | 9.6 | 0.00 | 0.19 | 0.12 | 45 | 1007.6 |
| 20260507151144 | 66 | 229 | 3.5 | 11.3 | 0.00 | 0.19 | 0.12 | 44 | 1007.5 |
| 20260507150644 | 66 | 294 | 2.6 | 11.3 | 0.00 | 0.19 | 0.12 | 44 | 1007.5 |
| 20260507150144 | 65 | 231 | 2.6 | 8.7 | 0.00 | 0.19 | 0.12 | 47 | 1007.6 |
| 20260507145645 | 63 | 285 | 2.6 | 8.7 | 0.00 | 0.19 | 0.12 | 48 | 1007.7 |
| 20260507145145 | 63 | 307 | 2.6 | 8.7 | 0.00 | 0.19 | 0.12 | 46 | 1007.7 |
| 20260507144644 | 64 | 288 | 2.6 | 8.7 | 0.00 | 0.19 | 0.12 | 45 | 1007.9 |
| 20260507144145 | 64 | 317 | 2.6 | 8.7 | 0.00 | 0.19 | 0.12 | 46 | 1007.9 |
| 20260507143143 | 67 | 229 | 1.7 | 7.0 | 0.00 | 0.19 | 0.12 | 43 | 1007.9 |
| 20260507142642 | 66 | 303 | 1.7 | 6.1 | 0.00 | 0.19 | 0.12 | 44 | 1007.9 |
| 20260507141143 | 65 | 314 | 3.5 | 8.7 | 0.00 | 0.19 | 0.12 | 46 | 1008.0 |
| 20260507140642 | 65 | 281 | 2.6 | 7.8 | 0.00 | 0.19 | 0.12 | 45 | 1008.0 |
| 20260507140143 | 65 | 320 | 2.6 | 7.8 | 0.00 | 0.19 | 0.12 | 46 | 1008.0 |
| 20260507135643 | 64 | 344 | 2.6 | 8.7 | 0.00 | 0.19 | 0.12 | 48 | 1008.0 |
| 20260507135143 | 64 | 327 | 3.5 | 8.7 | 0.00 | 0.19 | 0.12 | 50 | 1008.0 |
| 20260507134640 | 62 | 260 | 3.5 | 8.7 | 0.00 | 0.19 | 0.12 | 52 | 1008.0 |
| 20260507134140 | 62 | 313 | 2.6 | 7.8 | 0.00 | 0.19 | 0.12 | 51 | 1008.0 |
| 20260507133640 | 62 | 4 | 3.5 | 8.7 | 0.00 | 0.19 | 0.12 | 54 | 1007.9 |
| 20260507133140 | 61 | 321 | 4.3 | 8.7 | 0.00 | 0.19 | 0.12 | 55 | 1008.0 |
| 20260507132640 | 60 | 340 | 3.5 | 8.7 | 0.00 | 0.19 | 0.12 | 57 | 1008.0 |
| 20260507132141 | 59 | 346 | 2.6 | 8.7 | 0.00 | 0.19 | 0.12 | 59 | 1008.0 |
| 20260507130641 | 58 | 333 | 1.7 | 8.7 | 0.00 | 0.19 | 0.12 | 67 | 1008.3 |
| 20260507125638 | 56 | 339 | 1.7 | 8.7 | 0.00 | 0.19 | 0.12 | 71 | 1008.3 |
| 20260507124637 | 55 | 350 | 1.7 | 7.8 | 0.00 | 0.19 | 0.12 | 76 | 1008.5 |
| 20260507124137 | 55 | 328 | 1.7 | 7.0 | 0.00 | 0.19 | 0.12 | 76 | 1008.4 |
| 20260507123637 | 54 | 304 | 1.7 | 7.0 | 0.00 | 0.19 | 0.12 | 81 | 1008.5 |
| 20260507123139 | 53 | 335 | 1.7 | 7.0 | 0.00 | 0.19 | 0.12 | 83 | 1008.4 |
| 20260507122638 | 52 | 294 | 1.7 | 6.1 | 0.00 | 0.19 | 0.12 | 83 | 1008.4 |
| 20260507122137 | 52 | 298 | 1.7 | 6.1 | 0.00 | 0.19 | 0.12 | 84 | 1008.3 |
| 20260507121639 | 51 | 245 | 1.7 | 5.2 | 0.00 | 0.19 | 0.12 | 85 | 1008.3 |
| 20260507121138 | 51 | 275 | 0.9 | 6.1 | 0.00 | 0.19 | 0.12 | 86 | 1008.4 |
| 20260507120140 | 51 | 306 | 0.9 | 3.5 | 0.00 | 0.19 | 0.12 | 87 | 1008.2 |
| 20260507115639 | 51 | 310 | 1.7 | 3.5 | 0.00 | 0.19 | 0.12 | 87 | 1008.2 |
| 20260507115138 | 50 | 258 | 1.7 | 7.0 | 0.00 | 0.19 | 0.12 | 87 | 1008.3 |
| 20260507114635 | 50 | 298 | 0.9 | 7.0 | 0.00 | 0.19 | 0.12 | 87 | 1008.2 |
| 20260507114135 | 50 | 273 | 0.9 | 3.5 | 0.00 | 0.19 | 0.12 | 87 | 1008.2 |
| 20260507113636 | 50 | 275 | 0.9 | 3.5 | 0.00 | 0.19 | 0.12 | 87 | 1008.2 |
| 20260507112637 | 50 | 295 | 0.9 | 3.5 | 0.00 | 0.19 | 0.12 | 87 | 1008.1 |
| 20260507112137 | 50 | 318 | 0.9 | 3.5 | 0.00 | 0.19 | 0.12 | 87 | 1008.1 |
| 20260507111636 | 50 | 254 | 0.9 | 5.2 | 0.00 | 0.19 | 0.12 | 87 | 1008.1 |
| 20260507110636 | 50 | 311 | 0.9 | 2.6 | 0.01 | 0.19 | 0.12 | 87 | 1008.0 |
| 20260507110136 | 50 | 324 | 0.9 | 2.6 | 0.01 | 0.19 | 0.12 | 87 | 1007.8 |
| 20260507105637 | 50 | 269 | 0.9 | 3.5 | 0.01 | 0.19 | 0.12 | 87 | 1007.9 |
| 20260507105137 | 50 | 266 | 0.9 | 4.3 | 0.01 | 0.19 | 0.12 | 87 | 1008.0 |
| 20260507104636 | 50 | 262 | 0.9 | 4.3 | 0.02 | 0.19 | 0.12 | 87 | 1008.2 |
| 20260507104136 | 51 | 253 | 0.9 | 3.5 | 0.02 | 0.19 | 0.12 | 87 | 1008.3 |
| 20260507103638 | 50 | 252 | 0.9 | 3.5 | 0.03 | 0.19 | 0.12 | 87 | 1008.2 |
| 20260507103137 | 50 | 247 | 0.9 | 3.5 | 0.04 | 0.19 | 0.12 | 87 | 1008.3 |
| 20260507102636 | 50 | 248 | 0.9 | 3.5 | 0.04 | 0.19 | 0.12 | 87 | 1008.2 |
| 20260507102135 | 50 | 279 | 0.9 | 3.5 | 0.04 | 0.19 | 0.12 | 88 | 1007.7 |
| 20260507101635 | 50 | 271 | 0.9 | 2.6 | 0.05 | 0.19 | 0.12 | 88 | 1007.6 |
| 20260507101135 | 50 | 271 | 0.9 | 4.3 | 0.05 | 0.18 | 0.11 | 88 | 1007.7 |
| 20260507100636 | 50 | 291 | 0.9 | 4.3 | 0.07 | 0.18 | 0.11 | 88 | 1007.9 |
| 20260507100137 | 50 | 301 | 0.9 | 3.5 | 0.07 | 0.18 | 0.11 | 88 | 1007.7 |
| 20260507095635 | 50 | 324 | 0.9 | 3.5 | 0.08 | 0.18 | 0.11 | 88 | 1007.5 |
| 20260507095136 | 50 | 286 | 0.9 | 5.2 | 0.08 | 0.18 | 0.11 | 88 | 1007.4 |
| 20260507094636 | 50 | 303 | 0.9 | 5.2 | 0.07 | 0.17 | 0.10 | 88 | 1007.5 |
| 20260507094136 | 50 | 312 | 1.7 | 6.1 | 0.08 | 0.17 | 0.10 | 88 | 1007.6 |
| 20260507093136 | 51 | 352 | 2.6 | 7.0 | 0.06 | 0.15 | 0.08 | 87 | 1007.4 |
| 20260507092637 | 51 | 234 | 1.7 | 7.8 | 0.06 | 0.15 | 0.08 | 88 | 1007.4 |
| 20260507092133 | 51 | 310 | 1.7 | 7.8 | 0.06 | 0.15 | 0.08 | 87 | 1007.4 |
| 20260507091635 | 52 | 327 | 1.7 | 7.8 | 0.05 | 0.14 | 0.07 | 88 | 1007.4 |
| 20260507091133 | 52 | 314 | 0.9 | 6.1 | 0.05 | 0.13 | 0.06 | 87 | 1007.5 |
| 20260507090635 | 52 | 292 | 0.9 | 5.2 | 0.03 | 0.11 | 0.05 | 87 | 1007.6 |
| 20260507090131 | 52 | 224 | 0.9 | 4.3 | 0.03 | 0.11 | 0.04 | 87 | 1007.8 |
| 20260507085132 | 52 | 321 | 1.7 | 4.3 | 0.02 | 0.10 | 0.03 | 88 | 1007.6 |
| 20260507084627 | 52 | 289 | 1.7 | 4.3 | 0.02 | 0.10 | 0.03 | 87 | 1007.8 |
| 20260507084127 | 52 | 317 | 0.9 | 2.6 | 0.02 | 0.09 | 0.02 | 87 | 1007.7 |
| 20260507083628 | 52 | 267 | 0.9 | 2.6 | 0.02 | 0.09 | 0.02 | 87 | 1007.3 |
| 20260507082624 | 53 | 250 | 0.0 | 2.6 | 0.02 | 0.09 | 0.02 | 87 | 1007.3 |
| 20260507082124 | 53 | 290 | 0.9 | 2.6 | 0.02 | 0.09 | 0.02 | 86 | 1007.2 |
| 20260507081123 | 53 | 258 | 1.7 | 7.8 | 0.01 | 0.08 | 0.01 | 86 | 1007.1 |
| 20260507080625 | 53 | 258 | 1.7 | 7.8 | 0.01 | 0.08 | 0.01 | 86 | 1007.6 |
| 20260507080121 | 54 | 247 | 1.7 | 6.1 | 0.01 | 0.08 | 0.01 | 86 | 1007.4 |
| 20260507075621 | 54 | 319 | 1.7 | 7.0 | 0.01 | 0.08 | 0.01 | 86 | 1007.2 |
| 20260507075123 | 54 | 281 | 1.7 | 7.0 | 0.01 | 0.08 | 0.01 | 86 | 1007.1 |
| 20260507074622 | 55 | 261 | 1.7 | 6.1 | 0.01 | 0.08 | 0.01 | 85 | 1006.8 |
| 20260507074119 | 55 | 285 | 1.7 | 6.1 | 0.00 | 0.07 | 0.00 | 85 | 1007.0 |
| 20260507073619 | 55 | 304 | 0.9 | 7.0 | 0.00 | 0.07 | 0.00 | 85 | 1007.1 |
| 20260507073117 | 55 | 306 | 0.9 | 7.0 | 0.00 | 0.07 | 0.00 | 84 | 1007.0 |
| 20260507072618 | 55 | 288 | 0.9 | 6.1 | 0.00 | 0.07 | 0.00 | 84 | 1006.6 |
| 20260507072118 | 55 | 318 | 1.7 | 7.8 | 0.00 | 0.07 | 0.00 | 84 | 1006.2 |
| 20260507071618 | 55 | 317 | 1.7 | 8.7 | 0.00 | 0.07 | 0.00 | 84 | 1006.2 |
| 20260507071118 | 55 | 302 | 1.7 | 8.7 | 0.00 | 0.07 | 0.00 | 84 | 1006.2 |
| 20260507070619 | 56 | 325 | 1.7 | 6.1 | 0.00 | 0.07 | 0.00 | 85 | 1006.4 |
| 20260507065118 | 56 | 317 | 0.9 | 5.2 | 0.00 | 0.07 | 0.00 | 85 | 1006.3 |
| 20260507064617 | 56 | 274 | 1.7 | 6.1 | 0.00 | 0.07 | 0.00 | 85 | 1006.4 |
| 20260507064116 | 56 | 331 | 1.7 | 7.8 | 0.00 | 0.07 | 0.00 | 84 | 1006.5 |
| 20260507063115 | 56 | 279 | 0.9 | 5.2 | 0.00 | 0.07 | 0.00 | 84 | 1006.5 |
| 20260507062115 | 56 | 275 | 0.9 | 3.5 | 0.00 | 0.07 | 0.00 | 84 | 1006.4 |
| 20260507061617 | 56 | 285 | 1.7 | 5.2 | 0.00 | 0.07 | 0.00 | 84 | 1006.2 |
| 20260507061115 | 57 | 274 | 2.6 | 7.8 | 0.00 | 0.07 | 0.00 | 84 | 1006.1 |
| 20260507060615 | 57 | 347 | 1.7 | 7.8 | 0.00 | 0.07 | 0.00 | 84 | 1006.3 |
| 20260507060116 | 57 | 273 | 1.7 | 5.2 | 0.00 | 0.07 | 0.00 | 84 | 1006.5 |
| 20260507055616 | 57 | 311 | 1.7 | 5.2 | 0.00 | 0.07 | 0.00 | 84 | 1006.4 |
| 20260507055112 | 57 | 333 | 1.7 | 8.7 | 0.00 | 0.07 | 0.00 | 85 | 1006.4 |
| 20260507054613 | 57 | 287 | 1.7 | 8.7 | 0.00 | 0.07 | 0.00 | 85 | 1006.5 |
| 20260507053114 | 58 | 229 | 1.7 | 7.0 | 0.00 | 0.07 | 0.00 | 86 | 1006.6 |
| 20260507052614 | 58 | 279 | 1.7 | 5.2 | 0.00 | 0.07 | 0.00 | 86 | 1006.6 |
| 20260507052112 | 58 | 290 | 1.7 | 7.8 | 0.00 | 0.07 | 0.00 | 86 | 1006.5 |
| 20260507051611 | 58 | 301 | 2.6 | 8.7 | 0.00 | 0.07 | 0.00 | 86 | 1006.3 |
| 20260507051112 | 58 | 331 | 1.7 | 8.7 | 0.00 | 0.07 | 0.00 | 87 | 1006.3 |
| 20260507050611 | 59 | 308 | 1.7 | 5.2 | 0.00 | 0.07 | 0.00 | 88 | 1006.4 |
| 20260507050113 | 59 | 280 | 1.7 | 9.6 | 0.00 | 0.07 | 0.00 | 89 | 1006.4 |
| 20260507045610 | 59 | 285 | 2.6 | 10.4 | 0.00 | 0.07 | 0.00 | 89 | 1006.4 |
| 20260507045111 | 59 | 253 | 2.6 | 10.4 | 0.01 | 0.07 | 0.00 | 89 | 1006.4 |
| 20260507044611 | 59 | 327 | 2.6 | 7.0 | 0.01 | 0.07 | 0.00 | 89 | 1006.4 |
| 20260507044109 | 60 | 344 | 1.7 | 7.0 | 0.01 | 0.07 | 0.00 | 90 | 1006.4 |
| 20260507043609 | 60 | 271 | 1.7 | 7.0 | 0.01 | 0.07 | 0.00 | 91 | 1006.2 |
| 20260507042607 | 60 | 269 | 1.7 | 6.1 | 0.01 | 0.07 | 0.00 | 91 | 1006.2 |
| 20260507042106 | 60 | 267 | 1.7 | 7.0 | 0.01 | 0.07 | 0.00 | 91 | 1006.3 |
| 20260507041605 | 60 | 250 | 1.7 | 7.0 | 0.01 | 0.07 | 0.00 | 91 | 1006.4 |
| 20260507040604 | 60 | 252 | 1.7 | 7.8 | 0.01 | 0.07 | 0.00 | 91 | 1006.5 |
| 20260507040104 | 60 | 273 | 1.7 | 7.8 | 0.01 | 0.07 | 0.00 | 91 | 1006.6 |
| 20260507035606 | 60 | 261 | 1.7 | 6.1 | 0.01 | 0.07 | 0.07 | 91 | 1006.7 |
| 20260507035103 | 60 | 252 | 1.7 | 6.1 | 0.00 | 0.06 | 0.06 | 91 | 1006.6 |
| 20260507034602 | 60 | 261 | 2.6 | 9.6 | 0.00 | 0.06 | 0.06 | 91 | 1006.5 |
| 20260507034100 | 60 | 0 | 2.6 | 9.6 | 0.00 | 0.06 | 0.06 | 91 | 1006.4 |
| 20260507033601 | 60 | 230 | 2.6 | 7.8 | 0.00 | 0.06 | 0.06 | 91 | 1006.3 |
| 20260507032600 | 60 | 246 | 2.6 | 12.2 | 0.00 | 0.06 | 0.06 | 91 | 1006.2 |
| 20260507032100 | 60 | 252 | 2.6 | 8.7 | 0.00 | 0.06 | 0.06 | 91 | 1006.1 |
| 20260507031600 | 60 | 222 | 2.6 | 10.4 | 0.00 | 0.06 | 0.06 | 91 | 1006.0 |
| 20260507031102 | 60 | 230 | 2.6 | 10.4 | 0.00 | 0.06 | 0.06 | 91 | 1005.9 |
| 20260507030601 | 60 | 223 | 1.7 | 7.8 | 0.00 | 0.06 | 0.06 | 91 | 1005.8 |
| 20260507030101 | 60 | 263 | 2.6 | 8.7 | 0.00 | 0.06 | 0.06 | 91 | 1005.8 |
| 20260507025559 | 60 | 236 | 2.6 | 8.7 | 0.00 | 0.06 | 0.06 | 91 | 1005.7 |
| 20260507024558 | 60 | 252 | 2.6 | 12.2 | 0.00 | 0.06 | 0.06 | 91 | 1005.9 |
| 20260507024058 | 59 | 265 | 2.6 | 12.2 | 0.00 | 0.06 | 0.06 | 91 | 1006.1 |
| 20260507023058 | 59 | 216 | 1.7 | 6.1 | 0.00 | 0.06 | 0.06 | 91 | 1006.0 |
| 20260507022559 | 59 | 192 | 1.7 | 6.1 | 0.00 | 0.06 | 0.06 | 91 | 1005.9 |
| 20260507022058 | 59 | 303 | 1.7 | 7.8 | 0.00 | 0.06 | 0.06 | 91 | 1005.9 |
| 20260507021558 | 59 | 255 | 1.7 | 7.8 | 0.00 | 0.06 | 0.06 | 91 | 1005.9 |
| 20260507020559 | 59 | 206 | 1.7 | 8.7 | 0.00 | 0.06 | 0.06 | 91 | 1006.1 |
| 20260507020057 | 59 | 178 | 2.6 | 8.7 | 0.00 | 0.06 | 0.06 | 91 | 1005.8 |
| 20260507015557 | 59 | 187 | 1.7 | 8.7 | 0.00 | 0.06 | 0.06 | 91 | 1005.8 |
| 20260507015057 | 59 | 195 | 2.6 | 7.0 | 0.00 | 0.06 | 0.06 | 91 | 1006.0 |
| 20260507014557 | 59 | 211 | 2.6 | 7.0 | 0.00 | 0.06 | 0.06 | 91 | 1006.0 |
| 20260507014054 | 59 | 194 | 2.6 | 7.0 | 0.00 | 0.06 | 0.06 | 91 | 1006.0 |
| 20260507013555 | 59 | 172 | 2.6 | 8.7 | 0.00 | 0.06 | 0.06 | 91 | 1006.1 |
| 20260507013053 | 59 | 200 | 3.5 | 11.3 | 0.00 | 0.06 | 0.06 | 91 | 1006.1 |
| 20260507012555 | 59 | 192 | 2.6 | 11.3 | 0.00 | 0.06 | 0.06 | 91 | 1006.1 |
| 20260507012053 | 59 | 202 | 2.6 | 10.4 | 0.00 | 0.06 | 0.06 | 91 | 1006.2 |
| 20260507011553 | 58 | 185 | 2.6 | 8.7 | 0.00 | 0.06 | 0.06 | 91 | 1006.3 |
| 20260507010553 | 58 | 226 | 2.6 | 9.6 | 0.00 | 0.06 | 0.06 | 91 | 1006.4 |
| 20260507005550 | 58 | 211 | 3.5 | 10.4 | 0.00 | 0.06 | 0.06 | 91 | 1006.5 |
| 20260507005051 | 58 | 215 | 3.5 | 10.4 | 0.00 | 0.06 | 0.06 | 91 | 1006.5 |
| 20260507004549 | 58 | 132 | 3.5 | 11.3 | 0.01 | 0.06 | 0.06 | 91 | 1006.4 |
| 20260507004049 | 58 | 188 | 3.5 | 11.3 | 0.01 | 0.06 | 0.06 | 90 | 1006.3 |
| 20260507003550 | 58 | 193 | 2.6 | 8.7 | 0.01 | 0.06 | 0.06 | 90 | 1006.4 |
| 20260507003048 | 58 | 184 | 3.5 | 7.8 | 0.01 | 0.06 | 0.06 | 90 | 1006.4 |
| 20260507002547 | 58 | 213 | 3.5 | 8.7 | 0.01 | 0.06 | 0.06 | 90 | 1006.4 |
| 20260507002048 | 58 | 196 | 3.5 | 9.6 | 0.02 | 0.06 | 0.06 | 90 | 1006.3 |
| 20260507001548 | 59 | 144 | 3.5 | 9.6 | 0.02 | 0.06 | 0.06 | 90 | 1006.3 |
| 20260507001049 | 59 | 231 | 2.6 | 7.8 | 0.02 | 0.06 | 0.06 | 90 | 1006.2 |
| 20260507000548 | 59 | 237 | 2.6 | 7.8 | 0.02 | 0.06 | 0.06 | 90 | 1006.1 |
| 20260507000048 | 59 | 159 | 3.5 | 11.3 | 0.02 | 0.06 | 0.06 | 90 | 1006.0 |
| 20260506235548 | 59 | 229 | 3.5 | 14.8 | 0.02 | 0.06 | 0.06 | 90 | 1006.1 |
| 20260506234546 | 59 | 202 | 4.3 | 12.2 | 0.01 | 0.05 | 0.05 | 90 | 1006.2 |
| 20260506234046 | 59 | 236 | 4.3 | 12.2 | 0.01 | 0.05 | 0.05 | 89 | 1006.0 |
| 20260506233546 | 59 | 244 | 4.3 | 11.3 | 0.01 | 0.05 | 0.05 | 89 | 1006.0 |
| 20260506233046 | 60 | 220 | 3.5 | 13.9 | 0.01 | 0.05 | 0.05 | 89 | 1005.9 |
| 20260506232546 | 60 | 155 | 3.5 | 13.9 | 0.01 | 0.05 | 0.05 | 89 | 1006.0 |
| 20260506232048 | 60 | 136 | 3.5 | 9.6 | 0.00 | 0.04 | 0.05 | 89 | 1006.0 |
| 20260506231546 | 60 | 154 | 3.5 | 9.6 | 0.00 | 0.04 | 0.04 | 89 | 1006.0 |
| 20260506231047 | 60 | 234 | 3.5 | 8.7 | 0.00 | 0.04 | 0.04 | 88 | 1006.0 |
| 20260506230546 | 60 | 140 | 3.5 | 9.6 | 0.00 | 0.04 | 0.04 | 88 | 1006.0 |
| 20260506230046 | 60 | 186 | 4.3 | 9.6 | 0.01 | 0.04 | 0.04 | 88 | 1006.1 |
| 20260506225546 | 60 | 230 | 4.3 | 9.6 | 0.01 | 0.04 | 0.04 | 88 | 1006.0 |
| 20260506225048 | 60 | 218 | 3.5 | 7.8 | 0.01 | 0.04 | 0.04 | 88 | 1006.1 |
| 20260506224546 | 61 | 179 | 2.6 | 7.0 | 0.01 | 0.04 | 0.04 | 88 | 1006.1 |
| 20260506224046 | 61 | 222 | 3.5 | 8.7 | 0.01 | 0.04 | 0.04 | 87 | 1006.3 |
| 20260506223547 | 61 | 227 | 3.5 | 9.6 | 0.01 | 0.04 | 0.04 | 87 | 1006.2 |
| 20260506223045 | 61 | 182 | 3.5 | 9.6 | 0.01 | 0.04 | 0.04 | 87 | 1006.3 |
| 20260506222548 | 62 | 185 | 2.6 | 9.6 | 0.01 | 0.04 | 0.04 | 87 | 1006.4 |
| 20260506222046 | 62 | 217 | 2.6 | 9.6 | 0.01 | 0.04 | 0.04 | 87 | 1006.5 |
| 20260506221546 | 62 | 198 | 2.6 | 8.7 | 0.01 | 0.04 | 0.04 | 87 | 1006.5 |
| 20260506221046 | 62 | 189 | 3.5 | 8.7 | 0.01 | 0.04 | 0.04 | 86 | 1006.5 |
| 20260506220546 | 62 | 137 | 3.5 | 9.6 | 0.01 | 0.04 | 0.04 | 86 | 1006.5 |
| 20260506220046 | 62 | 229 | 3.5 | 9.6 | 0.00 | 0.03 | 0.03 | 86 | 1006.6 |
| 20260506215545 | 62 | 209 | 4.3 | 13.9 | 0.01 | 0.03 | 0.03 | 85 | 1006.7 |
| 20260506214547 | 62 | 158 | 3.5 | 8.7 | 0.01 | 0.03 | 0.03 | 84 | 1007.0 |
| 20260506214045 | 63 | 221 | 3.5 | 9.6 | 0.01 | 0.03 | 0.03 | 84 | 1007.0 |
| 20260506213544 | 63 | 182 | 3.5 | 12.2 | 0.01 | 0.03 | 0.03 | 84 | 1007.1 |
| 20260506213043 | 63 | 242 | 4.3 | 12.2 | 0.01 | 0.03 | 0.03 | 84 | 1007.0 |
| 20260506212544 | 63 | 215 | 4.3 | 15.6 | 0.01 | 0.03 | 0.03 | 83 | 1007.0 |